FALCON 9 DEB (45718 NORAD) Tracking and Keplerian Element Data

This shows tracking and keplerian element data for the satellite.

Feedback or suggestion? Click here.




ElementValue
Catalog45718
NameFALCON 9 DEB
Epoch Orbit568
Epoch Day191.29761494
Epoch Year2020
RAAN346.7321
Inclination52.9857
Eccentricity0.000951
Argument of Perigee241.8544
Mean Anonmoly118.1544
Mean Motion16.4719023
Decay Rate0.09091939
L11 45718U 20035BP 20191.29761494 .09091939 12490-4 15634-3 0 9992
L22 45718 52.9857 346.7321 0009510 241.8544 118.1544 16.47190230 5688

Live tracking and technical data element details for FALCON 9 DEB (NORAD 45718). FALCON 9 DEB can be tracked NOW for your location showing map with azimuth and elevation plus other details from your city location.

Track the satellite on the map from your city or location and see movement details for azimuth, elevation, latitude, longitude, range, height, and movement on the map or in text.







IsCatalogInMostPopularTable: catalog: 45718, numindb: 11
Update: records affected: 1



GetName: 45718 FALCON 9 DEB

Hit Count: updated at: Mon, 03 Aug 2020 17:22:46 GMT